Time,TemperatureF,DewpointF,PressureIn,WindDirection,WindDirectionDegrees,WindSpeedMPH,WindSpeedGustMPH,Humidity,HourlyPrecipIn,Conditions,Clouds,dailyrainin,SoftwareType,DateUTC
2013-02-05 00:00:00,66.4,64.0,29.82,South,180,4.0,8.0,92,0.00,,---,0.00,VWS V14.01,2013-02-05 06:00:00,
2013-02-05 00:05:00,66.3,63.9,29.82,SSE,162,1.0,4.0,92,0.00,,---,0.00,VWS V14.01,2013-02-05 06:05:00,
2013-02-05 00:10:00,66.1,63.7,29.82,SSE,165,1.0,8.0,92,0.00,,---,0.00,VWS V14.01,2013-02-05 06:10:00,
2013-02-05 00:15:00,66.0,63.6,29.82,SSE,165,1.0,8.0,92,0.00,,---,0.00,VWS V14.01,2013-02-05 06:15:00,
2013-02-05 00:20:00,66.0,63.6,29.82,SSE,167,1.0,7.0,92,0.00,,---,0.00,VWS V14.01,2013-02-05 06:20:00,
2013-02-05 00:25:00,65.8,63.4,29.82,SSE,148,6.0,7.0,92,0.00,,---,0.00,VWS V14.01,2013-02-05 06:25:00,
2013-02-05 00:30:00,65.6,63.2,29.81,SE,146,1.0,7.0,92,0.00,,---,0.00,VWS V14.01,2013-02-05 06:30:00,
2013-02-05 00:35:00,65.6,63.2,29.81,SE,146,1.0,3.0,92,0.00,,---,0.00,VWS V14.01,2013-02-05 06:35:00,
2013-02-05 00:40:00,65.5,63.4,29.81,SSE,159,1.0,3.0,93,0.00,,---,0.00,VWS V14.01,2013-02-05 06:40:00,
2013-02-05 00:45:00,65.3,63.2,29.81,SSE,159,1.0,3.0,93,0.00,,---,0.00,VWS V14.01,2013-02-05 06:45:00,
2013-02-05 00:50:00,65.3,63.2,29.81,SSE,160,1.0,7.0,93,0.00,,---,0.00,VWS V14.01,2013-02-05 06:50:00,
2013-02-05 00:55:00,65.3,63.2,29.81,SSE,160,1.0,7.0,93,0.00,,---,0.00,VWS V14.01,2013-02-05 06:55:00,
2013-02-05 01:00:00,65.2,63.1,29.81,SSE,162,3.0,7.0,93,0.00,,---,0.00,VWS V14.01,2013-02-05 07:00:00,
2013-02-05 01:05:00,65.2,63.1,29.81,SSE,162,1.0,3.0,93,0.00,,---,0.00,VWS V14.01,2013-02-05 07:05:00,
2013-02-05 01:10:00,65.2,63.1,29.81,SSE,162,1.0,3.0,93,0.00,,---,0.00,VWS V14.01,2013-02-05 07:10:00,
2013-02-05 01:15:00,65.0,62.9,29.81,SSE,162,1.0,4.0,93,0.00,,---,0.00,VWS V14.01,2013-02-05 07:15:00,
2013-02-05 01:20:00,64.8,63.0,29.81,SSE,162,1.0,2.0,94,0.00,,---,0.00,VWS V14.01,2013-02-05 07:20:00,
2013-02-05 01:25:00,64.8,63.0,29.81,SSE,162,1.0,4.0,94,0.00,,---,0.00,VWS V14.01,2013-02-05 07:25:00,
2013-02-05 01:30:00,64.7,62.9,29.81,SSE,162,1.0,4.0,94,0.00,,---,0.00,VWS V14.01,2013-02-05 07:30:00,
2013-02-05 01:35:00,64.5,62.7,29.81,SSE,162,1.0,3.0,94,0.00,,---,0.00,VWS V14.01,2013-02-05 07:35:00,
2013-02-05 01:40:00,64.5,62.7,29.81,SSE,162,1.0,3.0,94,0.00,,---,0.00,VWS V14.01,2013-02-05 07:40:00,
2013-02-05 01:45:00,64.5,62.7,29.81,SSE,162,2.0,4.0,94,0.00,,---,0.00,VWS V14.01,2013-02-05 07:45:00,
2013-02-05 01:50:00,64.3,62.5,29.81,SSE,162,1.0,4.0,94,0.00,,---,0.00,VWS V14.01,2013-02-05 07:50:00,
2013-02-05 01:55:00,64.3,62.5,29.81,SSE,162,1.0,4.0,94,0.00,,---,0.00,VWS V14.01,2013-02-05 07:55:00,
2013-02-05 02:00:00,64.2,62.4,29.81,SSE,162,1.0,1.0,94,0.00,,---,0.00,VWS V14.01,2013-02-05 08:00:00,
2013-02-05 02:05:00,64.2,62.4,29.81,SSE,162,1.0,1.0,94,0.00,,---,0.00,VWS V14.01,2013-02-05 08:05:00,
2013-02-05 02:10:00,64.2,62.4,29.81,SSE,162,1.0,1.0,94,0.00,,---,0.00,VWS V14.01,2013-02-05 08:10:00,
2013-02-05 02:15:00,64.2,62.4,29.80,SSE,162,1.0,1.0,94,0.00,,---,0.00,VWS V14.01,2013-02-05 08:15:00,
2013-02-05 02:20:00,64.0,62.2,29.80,SSE,162,1.0,1.0,94,0.00,,---,0.00,VWS V14.01,2013-02-05 08:20:00,
2013-02-05 02:25:00,64.0,62.5,29.80,SSE,162,1.0,1.0,95,0.00,,---,0.00,VWS V14.01,2013-02-05 08:25:00,
2013-02-05 02:30:00,64.0,62.5,29.80,SSE,162,1.0,1.0,95,0.00,,---,0.00,VWS V14.01,2013-02-05 08:30:00,
2013-02-05 02:35:00,63.9,62.4,29.80,SSE,162,1.0,1.0,95,0.00,,---,0.00,VWS V14.01,2013-02-05 08:35:00,
2013-02-05 02:40:00,63.9,62.4,29.80,SSE,162,1.0,1.0,95,0.00,,---,0.00,VWS V14.01,2013-02-05 08:40:00,
2013-02-05 02:45:00,63.9,62.4,29.81,SSE,162,1.0,1.0,95,0.00,,---,0.00,VWS V14.01,2013-02-05 08:45:00,
2013-02-05 02:50:00,63.9,62.4,29.81,SSE,162,1.0,1.0,95,0.00,,---,0.00,VWS V14.01,2013-02-05 08:50:00,
2013-02-05 02:55:00,63.9,62.4,29.81,SSE,162,1.0,1.0,95,0.00,,---,0.00,VWS V14.01,2013-02-05 08:55:00,
2013-02-05 03:00:00,63.9,62.4,29.81,SSE,162,1.0,1.0,95,0.00,,---,0.00,VWS V14.01,2013-02-05 09:00:00,
2013-02-05 03:05:00,63.9,62.4,29.81,SSE,162,1.0,1.0,95,0.00,,---,0.00,VWS V14.01,2013-02-05 09:05:00,
2013-02-05 03:10:00,63.9,62.4,29.81,SSE,162,1.0,1.0,95,0.00,,---,0.00,VWS V14.01,2013-02-05 09:10:00,
2013-02-05 03:15:00,63.9,62.4,29.80,SSE,162,2.0,3.0,95,0.00,,---,0.00,VWS V14.01,2013-02-05 09:15:00,
2013-02-05 03:20:00,63.9,62.4,29.80,SSE,162,1.0,4.0,95,0.00,,---,0.00,VWS V14.01,2013-02-05 09:20:00,
2013-02-05 03:25:00,63.9,62.4,29.80,SSE,162,1.0,4.0,95,0.00,,---,0.00,VWS V14.01,2013-02-05 09:25:00,
2013-02-05 03:30:00,63.9,62.4,29.81,SSE,162,1.0,1.0,95,0.00,,---,0.00,VWS V14.01,2013-02-05 09:30:00,
2013-02-05 03:35:00,63.9,62.4,29.81,SSE,162,1.0,6.0,95,0.00,,---,0.00,VWS V14.01,2013-02-05 09:35:00,
2013-02-05 03:40:00,63.9,62.4,29.81,SSE,162,1.0,6.0,95,0.00,,---,0.00,VWS V14.01,2013-02-05 09:40:00,
2013-02-05 03:45:00,63.9,62.7,29.81,SSE,162,1.0,1.0,96,0.00,,---,0.00,VWS V14.01,2013-02-05 09:45:00,
2013-02-05 03:50:00,63.9,62.7,29.81,SSE,162,3.0,3.0,96,0.00,,---,0.00,VWS V14.01,2013-02-05 09:50:00,
2013-02-05 03:55:00,64.0,62.8,29.81,SSE,162,1.0,3.0,96,0.00,,---,0.00,VWS V14.01,2013-02-05 09:55:00,
2013-02-05 04:00:00,64.0,62.8,29.81,SSE,162,1.0,1.0,96,0.00,,---,0.00,VWS V14.01,2013-02-05 10:00:00,
2013-02-05 04:05:00,64.0,62.8,29.81,SSE,162,1.0,1.0,96,0.00,,---,0.00,VWS V14.01,2013-02-05 10:05:00,
2013-02-05 04:10:00,63.9,62.7,29.81,SSE,162,1.0,1.0,96,0.00,,---,0.00,VWS V14.01,2013-02-05 10:10:00,
2013-02-05 04:15:00,63.9,62.7,29.82,SSE,162,1.0,1.0,96,0.00,,---,0.00,VWS V14.01,2013-02-05 10:15:00,
2013-02-05 04:20:00,63.7,62.5,29.82,SSE,162,1.0,1.0,96,0.00,,---,0.00,VWS V14.01,2013-02-05 10:20:00,
2013-02-05 04:25:00,63.7,62.5,29.82,SSE,162,1.0,1.0,96,0.00,,---,0.00,VWS V14.01,2013-02-05 10:25:00,
2013-02-05 04:30:00,63.5,62.3,29.82,SSE,162,1.0,1.0,96,0.00,,---,0.00,VWS V14.01,2013-02-05 10:30:00,
2013-02-05 04:35:00,63.4,62.2,29.82,SSE,162,1.0,1.0,96,0.00,,---,0.00,VWS V14.01,2013-02-05 10:35:00,
2013-02-05 04:40:00,63.2,62.0,29.82,SSE,162,1.0,1.0,96,0.00,,---,0.00,VWS V14.01,2013-02-05 10:40:00,
2013-02-05 04:45:00,63.2,62.0,29.82,SSE,162,1.0,1.0,96,0.00,,---,0.00,VWS V14.01,2013-02-05 10:45:00,
2013-02-05 04:50:00,63.1,61.9,29.82,SSE,162,1.0,1.0,96,0.00,,---,0.00,VWS V14.01,2013-02-05 10:50:00,
2013-02-05 04:55:00,62.9,61.8,29.82,SSE,162,1.0,1.0,96,0.00,,---,0.00,VWS V14.01,2013-02-05 10:55:00,
2013-02-05 05:00:00,62.7,61.5,29.82,SSE,162,1.0,1.0,96,0.00,,---,0.00,VWS V14.01,2013-02-05 11:00:00,
2013-02-05 05:05:00,62.6,61.5,29.82,SSE,162,1.0,1.0,96,0.00,,---,0.00,VWS V14.01,2013-02-05 11:05:00,
2013-02-05 05:10:00,62.6,61.5,29.82,SSE,162,1.0,1.0,96,0.00,,---,0.00,VWS V14.01,2013-02-05 11:10:00,
2013-02-05 05:15:00,62.4,61.2,29.83,SSE,162,1.0,1.0,96,0.00,,---,0.00,VWS V14.01,2013-02-05 11:15:00,
2013-02-05 05:20:00,62.4,61.2,29.83,SSE,162,1.0,1.0,96,0.00,,---,0.00,VWS V14.01,2013-02-05 11:20:00,
2013-02-05 05:25:00,62.3,61.2,29.83,SSE,162,1.0,1.0,96,0.00,,---,0.00,VWS V14.01,2013-02-05 11:25:00,
2013-02-05 05:30:00,62.1,61.0,29.83,SSE,162,1.0,1.0,96,0.00,,---,0.00,VWS V14.01,2013-02-05 11:30:00,
2013-02-05 05:35:00,62.0,60.8,29.83,SSE,162,1.0,1.0,96,0.00,,---,0.00,VWS V14.01,2013-02-05 11:35:00,
2013-02-05 05:40:00,62.0,60.8,29.83,SSE,162,1.0,1.0,96,0.00,,---,0.00,VWS V14.01,2013-02-05 11:40:00,
2013-02-05 05:45:00,61.8,60.7,29.83,SSE,162,1.0,1.0,96,0.00,,---,0.00,VWS V14.01,2013-02-05 11:45:00,
2013-02-05 05:50:00,61.6,60.5,29.83,SSE,162,1.0,1.0,96,0.00,,---,0.00,VWS V14.01,2013-02-05 11:50:00,
2013-02-05 05:55:00,61.6,60.5,29.83,SSE,162,1.0,1.0,96,0.00,,---,0.00,VWS V14.01,2013-02-05 11:55:00,
2013-02-05 06:00:00,61.6,60.5,29.84,SSE,162,1.0,1.0,96,0.00,,---,0.00,VWS V14.01,2013-02-05 12:00:00,
2013-02-05 06:05:00,61.6,60.5,29.84,SSE,162,1.0,1.0,96,0.00,,---,0.00,VWS V14.01,2013-02-05 12:05:00,
2013-02-05 06:10:00,61.6,60.5,29.84,SSE,162,1.0,1.0,96,0.00,,---,0.00,VWS V14.01,2013-02-05 12:10:00,
2013-02-05 06:15:00,61.6,60.5,29.84,SSE,162,1.0,1.0,96,0.00,,---,0.00,VWS V14.01,2013-02-05 12:15:00,
2013-02-05 06:20:00,61.8,60.7,29.84,SSE,162,1.0,1.0,96,0.00,,---,0.00,VWS V14.01,2013-02-05 12:20:00,
2013-02-05 06:25:00,61.8,60.7,29.84,SSE,162,1.0,1.0,96,0.00,,---,0.00,VWS V14.01,2013-02-05 12:25:00,
2013-02-05 06:30:00,61.8,60.7,29.84,SSE,162,1.0,1.0,96,0.00,,---,0.00,VWS V14.01,2013-02-05 12:30:00,
2013-02-05 06:35:00,61.8,60.7,29.84,SSE,162,1.0,1.0,96,0.00,,---,0.00,VWS V14.01,2013-02-05 12:35:00,
2013-02-05 06:40:00,61.8,60.7,29.84,SSE,162,1.0,1.0,96,0.00,,---,0.00,VWS V14.01,2013-02-05 12:40:00,
2013-02-05 06:45:00,61.8,60.7,29.85,SSE,162,1.0,1.0,96,0.00,,---,0.00,VWS V14.01,2013-02-05 12:45:00,
2013-02-05 06:50:00,61.6,60.5,29.85,SSE,162,1.0,1.0,96,0.00,,---,0.00,VWS V14.01,2013-02-05 12:50:00,
2013-02-05 06:55:00,61.6,60.5,29.85,SSE,162,1.0,1.0,96,0.00,,---,0.00,VWS V14.01,2013-02-05 12:55:00,
2013-02-05 07:00:00,61.8,60.7,29.85,SSE,162,1.0,1.0,96,0.00,,---,0.00,VWS V14.01,2013-02-05 13:00:00,
2013-02-05 07:05:00,61.8,60.7,29.85,SSE,162,1.0,1.0,96,0.00,,---,0.00,VWS V14.01,2013-02-05 13:05:00,
2013-02-05 07:11:00,61.8,60.7,29.85,SSE,162,1.0,1.0,96,0.00,,---,0.00,VWS V14.01,2013-02-05 13:11:00,
2013-02-05 07:16:00,61.8,60.7,29.86,SSE,162,1.0,1.0,96,0.00,,---,0.00,VWS V14.01,2013-02-05 13:16:00,
2013-02-05 07:21:00,61.8,60.7,29.86,SSE,162,1.0,1.0,96,0.00,,---,0.00,VWS V14.01,2013-02-05 13:21:00,
2013-02-05 07:26:00,61.8,60.7,29.86,SSE,162,1.0,1.0,96,0.00,,---,0.00,VWS V14.01,2013-02-05 13:26:00,
2013-02-05 07:31:00,61.8,60.9,29.86,SSE,162,1.0,1.0,97,0.00,,---,0.00,VWS V14.01,2013-02-05 13:31:00,
2013-02-05 07:36:00,61.8,60.9,29.86,SSE,162,1.0,1.0,97,0.00,,---,0.00,VWS V14.01,2013-02-05 13:36:00,
2013-02-05 07:41:00,62.0,61.1,29.86,SSE,162,1.0,1.0,97,0.00,,---,0.00,VWS V14.01,2013-02-05 13:41:00,
2013-02-05 07:46:00,62.1,61.2,29.87,SSE,162,1.0,1.0,97,0.00,,---,0.00,VWS V14.01,2013-02-05 13:46:00,
2013-02-05 07:51:00,62.1,61.2,29.87,SSE,162,1.0,1.0,97,0.00,,---,0.00,VWS V14.01,2013-02-05 13:51:00,
2013-02-05 07:56:00,62.3,61.4,29.87,SSE,162,1.0,1.0,97,0.00,,---,0.00,VWS V14.01,2013-02-05 13:56:00,
2013-02-05 08:01:00,62.6,61.7,29.87,SSE,162,1.0,1.0,97,0.00,,---,0.00,VWS V14.01,2013-02-05 14:01:00,
2013-02-05 08:06:00,62.9,62.0,29.87,SSE,162,1.0,1.0,97,0.00,,---,0.00,VWS V14.01,2013-02-05 14:06:00,
2013-02-05 08:11:00,63.4,62.5,29.87,SSE,162,1.0,1.0,97,0.00,,---,0.00,VWS V14.01,2013-02-05 14:11:00,
2013-02-05 08:16:00,63.9,63.0,29.87,SSE,162,1.0,1.0,97,0.00,,---,0.00,VWS V14.01,2013-02-05 14:16:00,
2013-02-05 08:21:00,64.3,63.4,29.87,SSE,162,1.0,1.0,97,0.00,,---,0.00,VWS V14.01,2013-02-05 14:21:00,
2013-02-05 08:26:00,64.5,63.6,29.87,SSE,162,1.0,1.0,97,0.00,,---,0.00,VWS V14.01,2013-02-05 14:26:00,
2013-02-05 08:31:00,64.7,63.8,29.88,SSE,162,1.0,1.0,97,0.00,,---,0.00,VWS V14.01,2013-02-05 14:31:00,
2013-02-05 08:36:00,65.0,64.1,29.88,SSE,162,1.0,1.0,97,0.00,,---,0.00,VWS V14.01,2013-02-05 14:36:00,
2013-02-05 08:41:00,65.2,64.3,29.88,SSE,162,1.0,5.0,97,0.00,,---,0.00,VWS V14.01,2013-02-05 14:41:00,
2013-02-05 08:46:00,65.5,64.6,29.89,SSE,162,3.0,4.0,97,0.00,,---,0.00,VWS V14.01,2013-02-05 14:46:00,
2013-02-05 08:51:00,65.8,64.9,29.89,SSE,162,1.0,4.0,97,0.00,,---,0.00,VWS V14.01,2013-02-05 14:51:00,
2013-02-05 08:56:00,65.8,64.9,29.89,SSE,162,1.0,4.0,97,0.00,,---,0.00,VWS V14.01,2013-02-05 14:56:00,
2013-02-05 09:01:00,66.1,65.2,29.89,SSE,162,1.0,1.0,97,0.00,,---,0.00,VWS V14.01,2013-02-05 15:01:00,
2013-02-05 09:06:00,66.1,65.2,29.89,SSE,162,5.0,5.0,97,0.00,,---,0.00,VWS V14.01,2013-02-05 15:06:00,
2013-02-05 09:11:00,66.1,65.2,29.89,South,169,1.0,6.0,97,0.00,,---,0.00,VWS V14.01,2013-02-05 15:11:00,
2013-02-05 09:16:00,66.4,65.5,29.89,SSW,197,4.0,4.0,97,0.00,,---,0.00,VWS V14.01,2013-02-05 15:16:00,
2013-02-05 09:21:00,66.6,65.7,29.89,SSW,201,1.0,6.0,97,0.00,,---,0.00,VWS V14.01,2013-02-05 15:21:00,
2013-02-05 09:26:00,67.1,66.2,29.89,SSW,203,5.0,7.0,97,0.00,,---,0.00,VWS V14.01,2013-02-05 15:26:00,
2013-02-05 09:31:00,67.6,66.7,29.90,SSW,196,7.0,7.0,97,0.00,,---,0.00,VWS V14.01,2013-02-05 15:31:00,
2013-02-05 09:36:00,67.6,66.7,29.90,South,186,3.0,8.0,97,0.00,,---,0.00,VWS V14.01,2013-02-05 15:36:00,
2013-02-05 09:41:00,67.9,67.0,29.90,SSW,193,4.0,8.0,97,0.00,,---,0.00,VWS V14.01,2013-02-05 15:41:00,
2013-02-05 09:46:00,68.1,67.2,29.90,South,169,5.0,6.0,97,0.00,,---,0.00,VWS V14.01,2013-02-05 15:46:00,
2013-02-05 09:51:00,67.9,67.0,29.90,SW,214,2.0,11.0,97,0.00,,---,0.00,VWS V14.01,2013-02-05 15:51:00,
2013-02-05 09:56:00,68.3,67.4,29.90,SSW,207,3.0,11.0,97,0.01,,---,0.01,VWS V14.01,2013-02-05 15:56:00,
2013-02-05 10:01:00,68.6,67.7,29.90,SSW,196,1.0,2.0,97,0.01,,---,0.01,VWS V14.01,2013-02-05 16:01:00,
2013-02-05 10:06:00,68.8,67.9,29.90,SW,232,3.0,7.0,97,0.01,,---,0.01,VWS V14.01,2013-02-05 16:06:00,
2013-02-05 10:11:00,69.1,67.9,29.90,SSW,197,1.0,8.0,96,0.01,,---,0.01,VWS V14.01,2013-02-05 16:11:00,
2013-02-05 10:16:00,69.6,68.4,29.91,SW,221,4.0,6.0,96,0.01,,---,0.01,VWS V14.01,2013-02-05 16:16:00,
2013-02-05 10:21:00,69.9,68.7,29.91,SSW,203,7.0,9.0,96,0.01,,---,0.01,VWS V14.01,2013-02-05 16:21:00,
2013-02-05 10:26:00,70.6,68.8,29.91,South,173,3.0,9.0,94,0.01,,---,0.01,VWS V14.01,2013-02-05 16:26:00,
2013-02-05 10:31:00,70.9,68.5,29.91,SW,221,1.0,8.0,92,0.01,,---,0.01,VWS V14.01,2013-02-05 16:31:00,
2013-02-05 10:36:00,71.6,68.5,29.91,SSW,208,1.0,9.0,90,0.01,,---,0.01,VWS V14.01,2013-02-05 16:36:00,
2013-02-05 10:41:00,72.3,68.2,29.91,West,269,1.0,9.0,87,0.01,,---,0.01,VWS V14.01,2013-02-05 16:41:00,
2013-02-05 10:46:00,73.2,67.7,29.90,West,266,1.0,8.0,83,0.01,,---,0.01,VWS V14.01,2013-02-05 16:46:00,
2013-02-05 10:51:00,73.9,67.7,29.90,West,261,4.0,8.0,81,0.01,,---,0.01,VWS V14.01,2013-02-05 16:51:00,
2013-02-05 10:56:00,74.6,67.3,29.90,West,263,1.0,8.0,78,0.01,,---,0.01,VWS V14.01,2013-02-05 16:56:00,
2013-02-05 11:01:00,74.6,66.9,29.90,SSW,201,2.0,2.0,77,0.00,,---,0.01,VWS V14.01,2013-02-05 17:01:00,
2013-02-05 11:06:00,74.4,66.7,29.90,SW,228,1.0,6.0,77,0.00,,---,0.01,VWS V14.01,2013-02-05 17:06:00,
2013-02-05 11:11:00,74.9,66.4,29.90,SW,231,3.0,6.0,75,0.00,,---,0.01,VWS V14.01,2013-02-05 17:11:00,
2013-02-05 11:16:00,75.3,66.8,29.90,SW,231,4.0,4.0,75,0.00,,---,0.01,VWS V14.01,2013-02-05 17:16:00,
2013-02-05 11:21:00,76.1,66.8,29.90,WSW,241,3.0,6.0,73,0.00,,---,0.01,VWS V14.01,2013-02-05 17:21:00,
2013-02-05 11:26:00,76.7,66.6,29.90,SW,225,1.0,6.0,71,0.00,,---,0.01,VWS V14.01,2013-02-05 17:26:00,
2013-02-05 11:31:00,77.4,66.9,29.90,SW,225,2.0,4.0,70,0.00,,---,0.01,VWS V14.01,2013-02-05 17:31:00,
2013-02-05 11:36:00,78.3,66.4,29.90,SW,225,1.0,4.0,67,0.00,,---,0.01,VWS V14.01,2013-02-05 17:36:00,
2013-02-05 11:41:00,78.1,66.7,29.90,SW,225,1.0,4.0,68,0.00,,---,0.01,VWS V14.01,2013-02-05 17:41:00,
2013-02-05 11:46:00,79.0,66.7,29.89,SW,227,1.0,1.0,66,0.00,,---,0.01,VWS V14.01,2013-02-05 17:46:00,
2013-02-05 11:51:00,79.6,66.8,29.89,SW,227,1.0,2.0,65,0.00,,---,0.01,VWS V14.01,2013-02-05 17:51:00,
2013-02-05 11:56:00,79.8,66.1,29.89,SW,227,1.0,3.0,63,0.00,,---,0.01,VWS V14.01,2013-02-05 17:56:00,
2013-02-05 12:01:00,79.9,65.7,29.89,SW,227,2.0,2.0,62,0.00,,---,0.01,VWS V14.01,2013-02-05 18:01:00,
2013-02-05 12:06:00,80.1,65.9,29.89,SW,227,1.0,3.0,62,0.00,,---,0.01,VWS V14.01,2013-02-05 18:06:00,
2013-02-05 12:11:00,80.7,65.5,29.89,SW,227,1.0,3.0,60,0.00,,---,0.01,VWS V14.01,2013-02-05 18:11:00,
2013-02-05 12:16:00,81.2,65.0,29.88,SW,227,1.0,2.0,58,0.00,,---,0.01,VWS V14.01,2013-02-05 18:16:00,
2013-02-05 12:21:00,81.6,65.4,29.88,SW,227,1.0,2.0,58,0.00,,---,0.01,VWS V14.01,2013-02-05 18:21:00,
2013-02-05 12:26:00,82.2,64.4,29.88,SW,217,4.0,6.0,55,0.00,,---,0.01,VWS V14.01,2013-02-05 18:26:00,
2013-02-05 12:31:00,82.4,64.1,29.87,SW,217,1.0,1.0,54,0.00,,---,0.01,VWS V14.01,2013-02-05 18:31:00,
2013-02-05 12:36:00,82.4,63.6,29.87,SW,217,1.0,3.0,53,0.00,,---,0.01,VWS V14.01,2013-02-05 18:36:00,
2013-02-05 12:41:00,83.0,64.7,29.87,SW,217,2.0,3.0,54,0.00,,---,0.01,VWS V14.01,2013-02-05 18:41:00,
2013-02-05 12:46:00,83.2,63.2,29.87,SW,218,3.0,3.0,51,0.00,,---,0.01,VWS V14.01,2013-02-05 18:46:00,
2013-02-05 12:51:00,83.2,63.8,29.87,SSW,203,3.0,4.0,52,0.00,,---,0.01,VWS V14.01,2013-02-05 18:51:00,
2013-02-05 12:56:00,84.1,63.5,29.87,SSW,193,2.0,4.0,50,0.00,,---,0.01,VWS V14.01,2013-02-05 18:56:00,
2013-02-05 13:01:00,84.5,63.3,29.86,WSW,238,1.0,3.0,49,0.00,,---,0.01,VWS V14.01,2013-02-05 19:01:00,
2013-02-05 13:06:00,84.5,63.3,29.86,WSW,248,2.0,6.0,49,0.00,,---,0.01,VWS V14.01,2013-02-05 19:06:00,
2013-02-05 13:11:00,84.9,63.0,29.86,WSW,248,1.0,6.0,48,0.00,,---,0.01,VWS V14.01,2013-02-05 19:11:00,
2013-02-05 13:16:00,85.5,67.5,29.85,East,84,2.0,5.0,55,0.00,,---,0.01,VWS V14.01,2013-02-05 19:16:00,
2013-02-05 13:21:00,84.7,67.8,29.85,East,86,5.0,8.0,57,0.00,,---,0.01,VWS V14.01,2013-02-05 19:21:00,
2013-02-05 13:26:00,84.3,67.9,29.85,ENE,73,4.0,8.0,58,0.00,,---,0.01,VWS V14.01,2013-02-05 19:26:00,
2013-02-05 13:31:00,84.7,67.8,29.84,ENE,77,4.0,7.0,57,0.00,,---,0.01,VWS V14.01,2013-02-05 19:31:00,
2013-02-05 13:36:00,84.7,68.3,29.84,East,93,1.0,8.0,58,0.00,,---,0.01,VWS V14.01,2013-02-05 19:36:00,
2013-02-05 13:41:00,85.3,67.8,29.84,ENE,70,4.0,8.0,56,0.00,,---,0.01,VWS V14.01,2013-02-05 19:41:00,
2013-02-05 13:46:00,85.7,67.2,29.84,ENE,66,1.0,5.0,54,0.00,,---,0.01,VWS V14.01,2013-02-05 19:46:00,
2013-02-05 13:52:00,85.5,67.5,29.84,NNE,21,1.0,8.0,55,0.00,,---,0.01,VWS V14.01,2013-02-05 19:52:00,
2013-02-05 13:57:00,85.5,67.5,29.84,ENE,63,3.0,8.0,55,0.00,,---,0.01,VWS V14.01,2013-02-05 19:57:00,
2013-02-05 14:02:00,85.5,67.0,29.83,ENE,78,4.0,8.0,54,0.00,,---,0.01,VWS V14.01,2013-02-05 20:02:00,
2013-02-05 14:07:00,84.9,67.5,29.83,East,95,4.0,8.0,56,0.00,,---,0.01,VWS V14.01,2013-02-05 20:07:00,
2013-02-05 14:11:00,84.3,67.9,29.83,ENE,76,3.0,8.0,58,0.00,,---,0.01,VWS V14.01,2013-02-05 20:11:00,
2013-02-05 14:16:00,84.0,67.7,29.83,East,84,4.0,12.0,58,0.00,,---,0.01,VWS V14.01,2013-02-05 20:16:00,
2013-02-05 14:21:00,83.0,67.7,29.83,East,91,3.0,12.0,60,0.00,,---,0.01,VWS V14.01,2013-02-05 20:21:00,
2013-02-05 14:26:00,82.4,67.6,29.83,East,100,4.0,12.0,61,0.00,,---,0.01,VWS V14.01,2013-02-05 20:26:00,
2013-02-05 14:31:00,81.2,67.9,29.83,ESE,122,9.0,11.0,64,0.00,,---,0.01,VWS V14.01,2013-02-05 20:31:00,
2013-02-05 14:36:00,80.3,67.5,29.83,ESE,112,4.0,11.0,65,0.00,,---,0.01,VWS V14.01,2013-02-05 20:36:00,
2013-02-05 14:41:00,79.8,67.4,29.83,East,91,5.0,11.0,66,0.00,,---,0.01,VWS V14.01,2013-02-05 20:41:00,
2013-02-05 14:46:00,79.6,67.2,29.82,ESE,104,9.0,11.0,66,0.00,,---,0.01,VWS V14.01,2013-02-05 20:46:00,
2013-02-05 14:51:00,79.4,67.1,29.82,ESE,110,7.0,12.0,66,0.00,,---,0.01,VWS V14.01,2013-02-05 20:51:00,
2013-02-05 14:57:00,79.4,67.1,29.82,ESE,117,5.0,13.0,66,0.00,,---,0.01,VWS V14.01,2013-02-05 20:57:00,
2013-02-05 15:02:00,79.4,67.1,29.82,East,91,5.0,11.0,66,0.00,,---,0.01,VWS V14.01,2013-02-05 21:02:00,
2013-02-05 15:07:00,79.0,67.1,29.82,ESE,119,5.0,11.0,67,0.00,,---,0.01,VWS V14.01,2013-02-05 21:07:00,
2013-02-05 15:12:00,78.8,66.9,29.82,East,95,7.0,11.0,67,0.00,,---,0.01,VWS V14.01,2013-02-05 21:12:00,
2013-02-05 15:17:00,78.6,67.2,29.82,ENE,74,9.0,9.0,68,0.00,,---,0.01,VWS V14.01,2013-02-05 21:17:00,
2013-02-05 15:22:00,78.5,67.1,29.82,East,93,1.0,12.0,68,0.00,,---,0.01,VWS V14.01,2013-02-05 21:22:00,
2013-02-05 15:27:00,78.5,67.1,29.82,SE,138,6.0,12.0,68,0.00,,---,0.01,VWS V14.01,2013-02-05 21:27:00,
2013-02-05 15:32:00,78.3,66.9,29.81,East,100,3.0,12.0,68,0.00,,---,0.01,VWS V14.01,2013-02-05 21:32:00,
2013-02-05 15:37:00,78.1,67.1,29.81,East,95,4.0,12.0,69,0.00,,---,0.01,VWS V14.01,2013-02-05 21:37:00,
2013-02-05 15:42:00,77.9,66.9,29.81,ESE,105,1.0,12.0,69,0.00,,---,0.01,VWS V14.01,2013-02-05 21:42:00,
2013-02-05 15:47:00,77.7,66.7,29.82,East,84,7.0,7.0,69,0.00,,---,0.01,VWS V14.01,2013-02-05 21:47:00,
2013-02-05 15:52:00,77.6,66.6,29.82,ESE,114,5.0,12.0,69,0.00,,---,0.01,VWS V14.01,2013-02-05 21:52:00,
2013-02-05 15:57:00,77.7,66.7,29.82,East,98,6.0,12.0,69,0.00,,---,0.01,VWS V14.01,2013-02-05 21:57:00,
2013-02-05 16:02:00,78.3,66.9,29.81,East,94,8.0,10.0,68,0.00,,---,0.01,VWS V14.01,2013-02-05 22:02:00,
2013-02-05 16:07:00,78.5,66.2,29.81,SE,139,11.0,11.0,66,0.00,,---,0.01,VWS V14.01,2013-02-05 22:07:00,
2013-02-05 16:12:00,78.1,65.8,29.81,ENE,76,8.0,12.0,66,0.00,,---,0.01,VWS V14.01,2013-02-05 22:12:00,
2013-02-05 16:17:00,78.1,65.8,29.81,East,84,3.0,7.0,66,0.00,,---,0.01,VWS V14.01,2013-02-05 22:17:00,
2013-02-05 16:22:00,78.3,65.6,29.81,SE,139,9.0,11.0,65,0.00,,---,0.01,VWS V14.01,2013-02-05 22:22:00,
2013-02-05 16:27:00,78.3,65.6,29.81,East,93,7.0,13.0,65,0.00,,---,0.01,VWS V14.01,2013-02-05 22:27:00,
2013-02-05 16:32:00,77.7,65.4,29.81,SE,129,2.0,9.0,66,0.00,,---,0.01,VWS V14.01,2013-02-05 22:32:00,
2013-02-05 16:37:00,77.7,65.0,29.81,ENE,76,7.0,12.0,65,0.00,,---,0.01,VWS V14.01,2013-02-05 22:37:00,
2013-02-05 16:42:00,77.2,65.4,29.81,ESE,108,11.0,14.0,67,0.00,,---,0.01,VWS V14.01,2013-02-05 22:42:00,
2013-02-05 16:47:00,77.0,65.6,29.80,ESE,104,6.0,12.0,68,0.00,,---,0.01,VWS V14.01,2013-02-05 22:47:00,
2013-02-05 16:52:00,76.5,65.2,29.80,ESE,118,8.0,13.0,68,0.00,,---,0.01,VWS V14.01,2013-02-05 22:52:00,
2013-02-05 16:57:00,76.3,65.8,29.80,ESE,112,2.0,14.0,70,0.00,,---,0.01,VWS V14.01,2013-02-05 22:57:00,
2013-02-05 17:02:00,76.3,66.2,29.81,ESE,111,11.0,11.0,71,0.00,,---,0.01,VWS V14.01,2013-02-05 23:02:00,
2013-02-05 17:07:00,76.0,66.7,29.81,East,91,11.0,12.0,73,0.00,,---,0.01,VWS V14.01,2013-02-05 23:07:00,
2013-02-05 17:12:00,75.4,66.9,29.81,ESE,110,4.0,12.0,75,0.00,,---,0.01,VWS V14.01,2013-02-05 23:12:00,
2013-02-05 17:17:00,74.9,67.2,29.81,East,100,8.0,10.0,77,0.00,,---,0.01,VWS V14.01,2013-02-05 23:17:00,
2013-02-05 17:22:00,74.4,67.1,29.81,ENE,77,8.0,12.0,78,0.00,,---,0.01,VWS V14.01,2013-02-05 23:22:00,
2013-02-05 17:27:00,74.0,67.4,29.81,SE,136,6.0,12.0,80,0.00,,---,0.01,VWS V14.01,2013-02-05 23:27:00,
2013-02-05 17:32:00,73.3,67.1,29.82,ESE,118,7.0,11.0,81,0.00,,---,0.01,VWS V14.01,2013-02-05 23:32:00,
2013-02-05 17:37:00,72.8,67.0,29.82,ESE,118,7.0,14.0,82,0.00,,---,0.01,VWS V14.01,2013-02-05 23:37:00,
2013-02-05 17:42:00,72.3,66.8,29.82,ESE,121,12.0,14.0,83,0.00,,---,0.01,VWS V14.01,2013-02-05 23:42:00,
2013-02-05 17:47:00,72.0,66.9,29.81,ESE,115,7.0,14.0,84,0.00,,---,0.01,VWS V14.01,2013-02-05 23:47:00,
2013-02-05 17:52:00,71.6,66.9,29.81,ESE,115,6.0,14.0,85,0.00,,---,0.01,VWS V14.01,2013-02-05 23:52:00,
2013-02-05 17:57:00,71.3,66.9,29.81,ESE,112,9.0,14.0,86,0.00,,---,0.01,VWS V14.01,2013-02-05 23:57:00,
2013-02-05 18:02:00,70.9,66.8,29.82,ESE,117,7.0,12.0,87,0.00,,---,0.01,VWS V14.01,2013-02-06 00:02:00,
2013-02-05 18:07:00,70.8,67.1,29.82,SE,141,4.0,15.0,88,0.00,,---,0.01,VWS V14.01,2013-02-06 00:07:00,
2013-02-05 18:12:00,70.6,66.9,29.82,ESE,110,7.0,15.0,88,0.00,,---,0.01,VWS V14.01,2013-02-06 00:12:00,
2013-02-05 18:17:00,70.4,66.7,29.82,East,100,2.0,13.0,88,0.00,,---,0.01,VWS V14.01,2013-02-06 00:17:00,
2013-02-05 18:22:00,70.4,66.7,29.82,ESE,105,4.0,13.0,88,0.00,,---,0.01,VWS V14.01,2013-02-06 00:22:00,
2013-02-05 18:27:00,70.3,66.9,29.82,SE,129,10.0,14.0,89,0.00,,---,0.01,VWS V14.01,2013-02-06 00:27:00,
2013-02-05 18:32:00,70.3,66.9,29.83,ESE,121,6.0,11.0,89,0.00,,---,0.01,VWS V14.01,2013-02-06 00:32:00,
2013-02-05 18:37:00,70.1,66.7,29.83,East,80,5.0,11.0,89,0.00,,---,0.01,VWS V14.01,2013-02-06 00:37:00,
2013-02-05 18:42:00,70.1,67.0,29.83,East,98,7.0,12.0,90,0.00,,---,0.01,VWS V14.01,2013-02-06 00:42:00,
2013-02-05 18:48:00,69.9,66.8,29.83,ESE,118,7.0,12.0,90,0.00,,---,0.01,VWS V14.01,2013-02-06 00:48:00,
2013-02-05 18:53:00,69.9,66.8,29.83,SE,125,1.0,12.0,90,0.00,,---,0.01,VWS V14.01,2013-02-06 00:53:00,
2013-02-05 18:58:00,69.9,66.8,29.83,ESE,112,8.0,12.0,90,0.00,,---,0.01,VWS V14.01,2013-02-06 00:58:00,
2013-02-05 19:03:00,69.9,67.2,29.83,ESE,114,8.0,12.0,91,0.00,,---,0.01,VWS V14.01,2013-02-06 01:03:00,
2013-02-05 19:08:00,69.9,67.2,29.83,ESE,108,7.0,12.0,91,0.00,,---,0.01,VWS V14.01,2013-02-06 01:08:00,
2013-02-05 19:13:00,70.1,67.4,29.83,ESE,105,7.0,12.0,91,0.00,,---,0.01,VWS V14.01,2013-02-06 01:13:00,
2013-02-05 19:18:00,70.1,67.4,29.84,ESE,121,9.0,11.0,91,0.00,,---,0.01,VWS V14.01,2013-02-06 01:18:00,
2013-02-05 19:23:00,70.1,67.7,29.84,SE,129,11.0,13.0,92,0.00,,---,0.01,VWS V14.01,2013-02-06 01:23:00,
2013-02-05 19:28:00,70.1,67.7,29.84,East,100,8.0,14.0,92,0.00,,---,0.01,VWS V14.01,2013-02-06 01:28:00,
2013-02-05 19:33:00,70.3,67.9,29.84,ESE,104,7.0,11.0,92,0.00,,---,0.01,VWS V14.01,2013-02-06 01:33:00,
2013-02-05 19:38:00,70.3,67.9,29.84,ESE,111,4.0,12.0,92,0.00,,---,0.01,VWS V14.01,2013-02-06 01:38:00,
2013-02-05 19:43:00,70.3,67.9,29.84,ESE,102,11.0,12.0,92,0.00,,---,0.01,VWS V14.01,2013-02-06 01:43:00,
2013-02-05 19:48:00,70.3,67.9,29.85,East,98,7.0,13.0,92,0.00,,---,0.01,VWS V14.01,2013-02-06 01:48:00,
2013-02-05 19:53:00,70.3,67.9,29.85,East,87,4.0,13.0,92,0.00,,---,0.01,VWS V14.01,2013-02-06 01:53:00,
2013-02-05 19:58:00,70.3,67.9,29.85,ESE,107,6.0,13.0,92,0.00,,---,0.01,VWS V14.01,2013-02-06 01:58:00,
2013-02-05 20:03:00,70.3,67.9,29.85,SE,146,9.0,13.0,92,0.00,,---,0.01,VWS V14.01,2013-02-06 02:03:00,
2013-02-05 20:08:00,70.3,67.9,29.85,ESE,105,9.0,13.0,92,0.00,,---,0.01,VWS V14.01,2013-02-06 02:08:00,
2013-02-05 20:13:00,70.3,68.2,29.85,ESE,105,7.0,13.0,93,0.00,,---,0.01,VWS V14.01,2013-02-06 02:13:00,
2013-02-05 20:18:00,70.3,68.2,29.86,ESE,114,7.0,11.0,93,0.00,,---,0.01,VWS V14.01,2013-02-06 02:18:00,
2013-02-05 20:23:00,70.3,68.2,29.86,ESE,102,6.0,18.0,93,0.00,,---,0.01,VWS V14.01,2013-02-06 02:23:00,
2013-02-05 20:28:00,70.4,68.3,29.86,SE,128,12.0,18.0,93,0.00,,---,0.01,VWS V14.01,2013-02-06 02:28:00,
2013-02-05 20:33:00,70.4,68.3,29.86,ESE,121,2.0,12.0,93,0.00,,---,0.01,VWS V14.01,2013-02-06 02:33:00,
2013-02-05 20:38:00,70.4,68.3,29.86,SE,124,10.0,12.0,93,0.00,,---,0.01,VWS V14.01,2013-02-06 02:38:00,
2013-02-05 20:43:00,70.4,68.3,29.86,ESE,118,6.0,13.0,93,0.00,,---,0.01,VWS V14.01,2013-02-06 02:43:00,
2013-02-05 20:48:00,70.4,68.0,29.87,SE,139,8.0,17.0,92,0.00,,---,0.01,VWS V14.01,2013-02-06 02:48:00,
2013-02-05 20:53:00,70.4,68.0,29.87,East,98,6.0,17.0,92,0.00,,---,0.01,VWS V14.01,2013-02-06 02:53:00,
2013-02-05 20:58:00,70.3,67.9,29.87,ESE,115,8.0,17.0,92,0.00,,---,0.01,VWS V14.01,2013-02-06 02:58:00,
2013-02-05 21:03:00,70.3,67.9,29.87,ESE,122,9.0,15.0,92,0.00,,---,0.01,VWS V14.01,2013-02-06 03:03:00,
2013-02-05 21:08:00,70.3,67.9,29.87,SE,126,7.0,15.0,92,0.00,,---,0.01,VWS V14.01,2013-02-06 03:08:00,
2013-02-05 21:13:00,70.4,68.0,29.87,ESE,118,8.0,15.0,92,0.00,,---,0.01,VWS V14.01,2013-02-06 03:13:00,
2013-02-05 21:18:00,70.4,68.0,29.86,ESE,108,11.0,14.0,92,0.00,,---,0.01,VWS V14.01,2013-02-06 03:18:00,
2013-02-05 21:23:00,70.4,68.0,29.86,ESE,114,11.0,19.0,92,0.00,,---,0.01,VWS V14.01,2013-02-06 03:23:00,
2013-02-05 21:28:00,70.3,67.9,29.86,SE,124,8.0,19.0,92,0.00,,---,0.01,VWS V14.01,2013-02-06 03:28:00,
2013-02-05 21:33:00,70.3,67.9,29.85,ESE,118,7.0,13.0,92,0.00,,---,0.01,VWS V14.01,2013-02-06 03:33:00,
2013-02-05 21:38:00,70.3,67.9,29.85,SE,126,8.0,13.0,92,0.00,,---,0.01,VWS V14.01,2013-02-06 03:38:00,
2013-02-05 21:43:00,70.3,67.9,29.85,SE,138,4.0,13.0,92,0.00,,---,0.01,VWS V14.01,2013-02-06 03:43:00,
2013-02-05 21:48:00,70.3,67.9,29.85,East,100,3.0,14.0,92,0.00,,---,0.01,VWS V14.01,2013-02-06 03:48:00,
2013-02-05 21:53:00,70.1,67.7,29.85,ESE,104,8.0,14.0,92,0.00,,---,0.01,VWS V14.01,2013-02-06 03:53:00,
2013-02-05 21:58:00,70.1,68.0,29.85,SE,146,11.0,15.0,93,0.00,,---,0.01,VWS V14.01,2013-02-06 03:58:00,
2013-02-05 22:03:00,70.1,68.0,29.85,SE,125,10.0,12.0,93,0.00,,---,0.01,VWS V14.01,2013-02-06 04:03:00,
2013-02-05 22:08:00,70.1,68.0,29.85,ESE,119,9.0,14.0,93,0.00,,---,0.01,VWS V14.01,2013-02-06 04:08:00,
2013-02-05 22:13:00,69.9,67.8,29.85,SE,125,3.0,14.0,93,0.00,,---,0.01,VWS V14.01,2013-02-06 04:13:00,
2013-02-05 22:18:00,69.9,67.8,29.87,ESE,114,3.0,10.0,93,0.00,,---,0.01,VWS V14.01,2013-02-06 04:18:00,
2013-02-05 22:23:00,69.9,67.8,29.87,SE,125,11.0,12.0,93,0.00,,---,0.01,VWS V14.01,2013-02-06 04:23:00,
2013-02-05 22:28:00,69.9,67.8,29.87,ESE,111,8.0,12.0,93,0.00,,---,0.01,VWS V14.01,2013-02-06 04:28:00,
2013-02-05 22:33:00,69.8,67.7,29.87,East,97,9.0,13.0,93,0.00,,---,0.01,VWS V14.01,2013-02-06 04:33:00,
2013-02-05 22:38:00,69.8,67.7,29.87,ESE,114,5.0,13.0,93,0.00,,---,0.01,VWS V14.01,2013-02-06 04:38:00,
2013-02-05 22:43:00,69.8,67.7,29.87,ESE,115,12.0,15.0,93,0.00,,---,0.01,VWS V14.01,2013-02-06 04:43:00,
2013-02-05 22:48:00,69.8,67.7,29.87,ESE,118,13.0,14.0,93,0.00,,---,0.01,VWS V14.01,2013-02-06 04:48:00,
2013-02-05 22:53:00,69.8,67.7,29.87,ESE,114,13.0,17.0,93,0.00,,---,0.01,VWS V14.01,2013-02-06 04:53:00,
2013-02-05 22:58:00,69.8,67.7,29.87,SE,125,12.0,17.0,93,0.00,,---,0.01,VWS V14.01,2013-02-06 04:58:00,
2013-02-05 23:00:00,69.8,68.0,29.87,SE,128,8.0,17.0,94,0.00,,---,0.01,VWS V14.01,2013-02-06 05:00:00,
2013-02-05 23:05:00,69.9,68.1,29.87,SSE,149,9.0,17.0,94,0.00,,---,0.00,VWS V14.01,2013-02-06 05:05:00,
2013-02-05 23:10:00,69.9,68.1,29.87,ESE,119,11.0,17.0,94,0.00,,---,0.00,VWS V14.01,2013-02-06 05:10:00,
2013-02-05 23:15:00,69.8,68.0,29.87,SE,141,7.0,9.0,94,0.00,,---,0.00,VWS V14.01,2013-02-06 05:15:00,
2013-02-05 23:20:00,69.8,68.0,29.87,SE,131,6.0,12.0,94,0.00,,---,0.00,VWS V14.01,2013-02-06 05:20:00,
2013-02-05 23:25:00,69.8,68.0,29.87,ESE,104,8.0,14.0,94,0.00,,---,0.00,VWS V14.01,2013-02-06 05:25:00,
2013-02-05 23:30:00,69.8,68.0,29.87,ESE,108,7.0,9.0,94,0.00,,---,0.00,VWS V14.01,2013-02-06 05:30:00,
2013-02-05 23:35:00,69.8,68.0,29.87,ESE,122,3.0,17.0,94,0.00,,---,0.00,VWS V14.01,2013-02-06 05:35:00,
2013-02-05 23:40:00,69.8,68.0,29.87,ESE,102,7.0,17.0,94,0.00,,---,0.00,VWS V14.01,2013-02-06 05:40:00,
2013-02-05 23:45:00,69.9,68.1,29.88,SE,134,5.0,9.0,94,0.00,,---,0.00,VWS V14.01,2013-02-06 05:45:00,
2013-02-05 23:50:00,70.1,68.3,29.88,ESE,121,11.0,13.0,94,0.00,,---,0.00,VWS V14.01,2013-02-06 05:50:00,
2013-02-05 23:55:00,70.1,68.3,29.88,ESE,102,9.0,13.0,94,0.00,,---,0.00,VWS V14.01,2013-02-06 05:55:00,